Wind_Speed
5 1 5 7 4 6 4 5 20 9 5 5 1 5 7 18 17 17 11 11 9 9 21 27 25 21 32 28 24 21 12 19 21 17 14 13 9 12 9 8 4 2 2 3
5 3 10 11 6 11 12 14 18 16 20 10 9 15 10 16 18 19 16 13 12 10 8 17 18 30 34 31 26 25 21 19 16 14 11 10 9 5 8 8 7 4 7 2
8 11 10 7 13 8 20 15 14 21 9 8 17 18 3 13 12 18 18 18 13 9 10 10 17 30 33 33 30 29 27 22 19 17 14 6 10 5 3 7 7 6 7 6
7 8 11 6 11 14 8 18 24 19 5 4 4 3 4 1 5 8 19 18 21 21 14 11 15 24 30 36 33 29 27 26 21 18 15 8 7 4 2 6 12 9 11 9
9 5 6 0 14 9 6 24 20 13 6 2 2 3 6 5 5 6 10 12 12 18 18 16 16 24 36 36 35 33 31 27 24 24 20 14 14 8 5 8 3 6 11 13
7 3 5 8 19 11 16 16 15 8 4 5 2 5 6 5 9 2 8 11 11 20 16 17 24 22 29 32 32 36 35 32 28 26 22 19 14 12 7 10 8 13 14 14
11 4 6 6 4 17 8 6 4 5 7 3 10 3 10 13 9 13 9 4 4 13 14 11 7 19 26 33 33 32 37 35 31 25 25 21 22 16 12 12 11 8 10 7
6 7 10 11 11 9 3 7 6 6 4 2 9 5 7 9 6 10 15 11 20 11 7 9 12 20 19 27 31 32 36 33 32 29 25 23 18 21 13 12 12 11 10 13
3 6 5 6 6 6 3 4 6 9 4 7 6 7 10 5 10 19 18 23 26 27 10 11 12 7 25 29 30 34 35 35 32 29 27 24 20 17 18 14 13 13 12 14
10 5 1 9 9 2 12 9 3 1 8 6 2 5 5 11 6 12 16 23 23 21 4 15 12 5 4 29 31 36 38 37 33 30 25 23 22 20 19 17 18 18 16 17
4 4 5 5 3 9 5 3 8 8 6 6 6 6 7 8 6 10 11 16 19 12 12 12 15 21 9 13 29 38 38 36 33 28 24 22 22 22 20 22 18 15 15 16
2 5 1 7 17 18 10 9 12 5 3 4 6 6 8 18 7 10 13 11 11 14 12 9 18 17 20 25 16 23 36 37 33 30 29 28 23 20 20 21 22 18 18 17
6 3 4 9 5 8 5 8 8 2 4 3 5 7 8 9 10 10 9 9 13 19 12 8 12 9 13 17 14 15 21 32 35 33 30 29 26 23 20 18 17 19 21 22
7 5 7 6 7 3 8 17 18 3 4 3 2 5 4 8 10 8 8 8 7 8 8 7 8 9 15 15 14 11 14 10 16 26 26 25 24 22 20 18 20 23 24 25
5 6 7 5 4 5 11 15 20 3 17 7 10 7 5 1 11 10 9 7 8 8 8 7 7 7 11 12 13 15 11 8 7 8 9 5 15 17 15 17 17 8 24 28
3 1 3 4 13 10 10 14 19 6 16 18 15 4 7 5 6 9 7 9 9 9 7 7 7 9 11 10 12 12 12 11 11 5 5 3 2 1 2 3 3 3 5 2
4 3 3 3 8 5 7 10 13 14 18 19 12 8 7 6 7 7 8 9 8 9 8 8 8 11 12 13 11 11 11 11 10 10 10 9 6 2 3 4 7 4 5 8
4 4 3 2 8 6 7 3 5 18 12 8 10 9 5 5 7 5 9 8 8 8 8 8 11 11 11 12 11 10 10 8 10 10 10 8 7 7 7 9 9 10 9 10
7 5 3 2 3 8 9 7 10 7 6 7 8 10 7 9 4 3 11 9 7 8 10 15 15 15 11 11 11 11 15 14 11 11 9 7 7 6 6 7 7 8 8 9
4 15 6 8 6 8 5 12 22 8 6 6 6 3 3 4 4 6 9 10 9 13 19 19 15 14 13 14 13 15 13 11 11 9 8 6 5 6 7 6 6 6 7 8
3 1 1 2 2 4 13 6 14 5 9 8 6 6 4 6 6 6 17 9 14 17 18 22 18 12 21 22 16 16 13 10 8 6 6 5 3 3 5 5 5 6 7 8
2 4 1 3 1 3 3 8 7 6 14 13 13 16 13 6 11 6 23 9 10 11 13 26 20 19 22 19 17 15 11 8 6 6 5 5 5 7 3 3 4 6 7 8
2 4 3 5 4 4 5 13 18 23 25 17 15 19 22 18 8 15 8 11 10 10 13 22 24 18 17 17 17 15 11 8 6 5 4 3 2 2 3 6 7 9 5 6
7 5 3 6 5 7 8 15 22 22 22 17 18 19 13 18 13 14 15 12 12 16 20 27 24 19 13 15 14 12 11 7 5 5 3 3 2 2 3 3 2 3 4 4
4 3 4 3 5 7 7 6 9 13 11 13 14 9 10 12 15 13 10 12 16 20 26 27 24 20 16 12 12 12 10 7 4 5 6 8 9 8 7 4 4 4 3 2
2 3 4 3 6 7 5 7 10 7 11 13 22 22 20 25 24 12 7 15 21 22 25 20 18 21 15 12 10 14 8 6 5 5 8 12 10 15 10 8 7 8 7 5
Wind_Direction
338 141 197 225 199 264 291 304 297 231 103 58 10 266 213 173 172 170 176 174 181 191 187 206 179 175 157 156 161 164 165 164 180 184 202 220 246 262 245 235 223 203 271 151
16 262 231 135 261 264 275 239 259 97 104 47 326 257 224 183 183 174 174 178 190 186 160 177 168 146 158 166 168 168 176 177 173 198 211 210 241 327 240 195 260 193 218 201
187 232 260 114 255 228 262 249 252 134 112 127 144 257 155 194 197 176 180 181 182 207 178 175 169 159 163 170 176 181 185 187 194 201 219 221 206 195 187 216 208 202 210 213
244 234 228 171 253 247 19 64 66 132 116 164 85 261 273 264 300 197 189 189 180 190 178 176 181 159 164 178 184 182 186 188 193 199 217 223 240 164 283 275 208 194 236 225
268 193 201 293 254 67 86 78 79 76 92 148 101 46 262 349 291 267 188 193 183 178 171 177 190 175 178 179 183 187 186 196 200 203 207 201 198 221 218 178 141 181 212 219
276 274 180 187 251 144 143 82 67 66 22 38 307 88 278 206 214 265 226 189 196 169 172 177 187 186 179 178 178 189 189 195 200 206 205 203 203 202 187 181 194 174 215 219
280 217 240 190 297 151 94 61 33 33 20 38 343 18 247 280 227 207 208 212 183 175 160 175 164 168 157 177 183 186 190 195 200 207 213 210 211 208 202 176 178 209 238 197
239 278 213 252 200 165 149 147 142 126 114 43 315 258 258 309 191 223 124 59 1 0 26 341 287 185 182 176 175 182 188 193 201 206 213 215 216 214 212 207 203 209 205 179
248 277 328 330 3 134 99 184 151 100 75 118 262 299 288 20 61 95 104 120 151 251 281 302 277 263 166 180 182 178 184 193 202 209 211 216 220 216 212 223 218 218 211 193
245 291 128 316 352 247 158 162 99 171 140 184 320 267 241 311 65 113 129 151 173 197 206 299 285 298 244 190 186 183 187 193 200 206 207 212 218 220 214 213 223 228 228 222
204 94 283 24 279 258 279 249 248 155 159 142 176 263 223 245 172 156 161 160 179 189 188 213 269 274 248 223 167 181 184 191 196 198 207 212 219 224 225 225 226 216 216 212
169 146 91 271 274 272 303 285 287 137 338 98 133 16 247 235 134 108 157 173 183 189 190 227 243 260 260 250 218 182 185 191 196 197 208 210 215 218 223 229 233 231 234 233
185 35 21 323 335 335 266 296 297 25 93 300 112 176 160 113 98 101 104 148 175 202 223 215 190 137 79 80 71 60 192 199 198 197 203 206 210 211 218 230 240 238 239 240
138 131 171 197 234 258 297 308 315 79 92 141 109 152 142 120 111 100 103 107 103 89 75 76 63 53 57 58 56 59 71 92 192 198 198 203 209 215 221 229 235 245 241 240
105 143 195 230 244 323 303 300 300 329 157 130 191 124 236 178 133 142 149 145 133 125 115 103 93 79 64 57 53 53 58 73 91 150 142 164 210 218 218 237 246 257 241 242
146 28 10 44 331 340 328 303 307 78 124 108 127 123 227 223 259 135 153 125 121 117 126 111 105 97 72 72 65 57 50 47 59 97 65 102 205 313 359 296 314 312 280 226
71 110 42 301 314 12 337 2 345 95 128 132 141 194 175 151 96 135 126 121 121 108 108 103 93 91 86 82 75 58 65 68 74 66 54 49 55 40 15 354 281 305 320 317
124 93 67 331 20 357 248 272 359 98 75 72 113 140 139 49 41 258 131 128 122 125 127 120 124 131 120 111 105 88 77 79 84 85 84 76 67 46 11 29 25 22 8 16
138 79 56 126 49 289 314 321 137 122 38 33 116 105 55 46 28 180 126 127 133 126 125 127 128 132 134 143 133 115 88 92 91 85 76 68 50 34 24 26 25 15 13 5
237 138 151 159 152 205 190 253 112 42 20 331 99 63 155 93 78 328 136 127 134 149 141 137 139 163 170 158 140 123 108 97 89 86 81 83 75 62 61 47 36 16 1 352
239 72 217 316 292 106 211 150 173 105 205 208 177 180 218 135 112 303 304 132 158 153 161 152 163 162 138 129 126 114 112 113 116 104 95 91 82 73 73 39 12 351 348 344
124 123 238 314 189 143 338 31 114 187 127 158 183 199 181 144 130 186 250 130 118 120 140 149 155 132 140 136 131 127 127 133 130 127 108 94 72 111 39 12 8 1 349 348
64 136 171 169 167 205 75 112 141 153 155 189 197 207 190 160 169 223 150 136 139 165 196 136 134 122 112 146 140 137 146 146 146 136 136 125 94 86 354 330 331 349 49 350
345 66 99 82 19 82 60 127 160 172 174 182 189 175 172 174 188 223 145 155 156 175 133 130 129 124 118 128 141 135 152 160 170 158 173 197 239 164 116 98 101 11 21 35
222 63 103 126 118 100 80 92 125 173 164 147 96 360 13 327 300 167 161 170 160 148 135 140 146 150 150 152 162 148 155 162 194 213 234 238 238 242 232 231 255 285 297 348
9 180 140 203 149 121 144 127 110 65 123 151 146 183 200 195 259 182 156 146 125 126 132 128 124 148 151 158 152 168 167 173 209 250 269 273 272 239 239 243 256 261 261 265
Height
773 782 804 795 792 789 803 827 829 788 790 792 807 804 797 782 782 787 791 794 795 794 794 798 801 804 809 813 816 819 823 825 829 830 833 836 838 839 841 842 841 842 842 842
786 794 766 771 772 781 786 797 800 805 791 813 814 803 789 780 779 778 783 789 790 790 791 794 797 803 806 810 814 816 820 824 826 827 830 834 835 836 839 840 838 839 840 842
787 766 747 766 768 780 775 778 782 803 805 805 821 825 797 776 771 771 774 775 784 788 789 790 794 799 802 807 809 812 815 820 823 825 828 833 835 836 835 836 838 839 840 841
760 750 761 775 780 765 784 752 768 795 803 824 805 839 805 793 789 773 771 771 775 780 781 785 788 794 799 801 804 810 813 816 820 823 826 830 832 833 832 834 834 836 838 839
768 756 765 775 761 755 795 767 784 792 824 819 817 833 811 798 791 782 770 767 766 769 775 780 783 788 793 797 802 806 809 812 815 818 823 828 829 831 831 833 835 836 835 837
752 745 747 756 735 748 753 768 778 799 823 848 824 837 827 805 785 777 767 762 763 765 768 772 777 782 788 794 799 802 805 808 811 814 818 823 825 828 830 833 833 832 832 838
758 759 738 738 759 763 761 791 843 851 861 871 841 837 811 771 767 762 765 768 764 763 766 771 776 778 783 789 794 798 802 805 808 810 814 818 821 825 828 829 829 831 831 837
789 792 749 729 750 762 766 787 834 863 879 872 854 851 805 760 746 751 762 763 781 779 786 790 782 775 778 783 789 793 797 801 805 807 810 813 817 821 826 827 828 827 830 835
781 773 729 725 730 738 768 786 771 834 847 878 854 823 788 759 761 763 777 778 800 794 780 781 782 777 775 779 783 788 793 797 802 804 806 809 812 816 821 823 825 825 827 830
755 784 737 734 727 725 749 740 797 800 868 868 856 848 832 796 782 777 783 785 791 784 786 774 767 776 778 777 781 784 788 792 796 799 802 805 808 812 817 820 821 821 821 822
738 764 766 748 751 756 751 757 751 766 782 846 869 849 795 797 776 779 777 776 781 784 784 782 772 769 774 780 778 780 784 788 791 794 796 801 804 808 812 816 818 820 820 819
747 769 790 773 738 726 736 750 750 791 780 789 807 845 776 786 763 766 779 775 775 774 780 781 780 777 775 776 779 778 778 782 784 787 791 795 799 803 807 810 813 817 819 818
743 767 798 786 753 737 746 738 731 734 758 790 813 826 763 761 765 764 771 773 773 775 779 782 787 781 777 776 775 776 778 778 780 784 788 792 796 799 802 807 810 811 813 815
722 759 775 799 777 758 763 742 730 740 787 793 795 796 772 770 770 771 773 771 769 769 771 773 773 774 775 776 776 777 779 780 781 784 787 791 794 796 799 802 804 805 806 806
728 765 754 743 745 746 750 744 736 745 759 786 794 792 795 781 768 765 770 773 774 774 776 777 777 778 779 780 780 780 781 782 783 786 788 791 793 794 797 799 800 802 802 802
725 768 748 759 745 746 754 742 734 736 743 761 782 794 777 770 771 763 770 773 777 777 778 778 778 780 782 783 783 783 783 783 784 786 788 790 791 793 795 797 798 798 799 799
741 763 773 784 759 756 776 758 736 736 737 753 781 775 770 767 768 767 771 773 777 779 782 782 782 784 785 785 786 787 786 785 786 788 789 790 792 793 793 795 797 797 797 797
751 767 784 798 780 807 766 748 730 737 749 748 758 767 767 770 768 767 762 772 775 777 780 782 783 787 788 788 788 789 789 788 789 791 792 793 795 795 795 797 797 798 799 798
730 774 801 808 812 787 762 736 748 754 779 757 765 768 770 771 772 765 761 768 774 777 779 781 785 790 790 790 790 790 791 792 793 794 794 796 797 797 798 799 799 800 799 799
715 742 778 790 806 821 797 743 735 756 809 772 766 772 772 768 797 794 764 767 773 776 778 781 785 790 790 791 792 792 793 794 795 797 797 798 799 800 800 800 801 801 801 800
743 740 754 767 769 755 734 717 723 777 792 768 760 757 753 769 783 785 786 768 772 775 776 781 786 789 791 792 793 793 795 797 798 799 800 801 802 802 802 802 802 802 801 801
746 759 760 760 763 775 713 717 749 753 752 758 754 745 747 765 770 790 787 768 772 774 776 781 787 788 790 791 792 795 797 799 800 801 802 802 803 803 803 803 802 801 801 801
749 737 751 747 757 722 711 722 728 732 742 746 741 735 740 747 763 775 766 769 771 772 776 781 785 789 792 792 792 795 798 800 801 802 803 803 804 803 803 803 802 801 800 801
721 709 734 739 730 724 717 720 727 728 732 740 742 738 743 746 759 766 758 764 767 772 776 781 785 789 791 793 794 795 798 800 802 802 802 803 803 802 802 802 801 801 800 800
723 715 729 736 727 726 717 715 716 724 733 747 758 767 773 773 767 751 758 761 765 770 776 781 784 788 790 792 793 795 798 799 801 802 802 802 802 802 801 801 800 800 799 800
718 723 739 745 724 727 724 716 713 718 728 734 750 762 781 768 769 753 757 762 764 770 775 780 784 788 789 790 792 794 796 798 800 800 800 799 800 799 800 799 799 798 798 799